Swansboro, NC

4:25 PM EDT on May 28, 2017 (GMT -0400)
Bogue McAlf

Weather History for KNJM - August, 2013

Change the Weather History Date:

Thursday, August 1, 2013

  Actual Average (KNKT) Record (KNKT)
Temperature  
Mean Temperature 76 °F -  
Max Temperature 82 °F 84 °F 100 °F (1999)
Min Temperature 71 °F 69 °F 64 °F (2001)
Cooling Degree Days 12    
Growing Degree Days 26 (Base 50)    
Moisture  
Dew Point 72 °F    
Average Humidity 81    
Maximum Humidity 89    
Minimum Humidity 70    
Precipitation  
Precipitation 0.39 in - - ()
Sea Level Pressure  
Sea Level Pressure 29.98 in    
Wind  
Wind Speed 6 mph (SSW)    
Max Wind Speed 17 mph    
Max Gust Speed 25 mph    
Visibility 8 miles    
Events Rain    
Averages and records for this station are not official NWS values.
T = Trace of Precipitation, MM = Missing Value Source: NWS Daily Summary

Daily Weather History Graph

Daily Weather History Graph

Search for Another Location

Airport or City:

Trip Planner

Search our weather history database for the weather conditions in past years. The results will help you decide how hot, cold, wet, or windy it might be!

Date:

Astronomy

Aug. 01, 2013 Rise Set
Actual Time 6:18 AM EDT 8:10 PM EDT
Civil Twilight 5:50 AM EDT 8:37 PM EDT
Nautical Twilight 5:17 AM EDT 9:11 PM EDT
Astronomical Twilight 4:41 AM EDT 9:46 PM EDT
Moon 1:54 AM EDT (8/1) 4:15 PM EDT (8/1)
Length of Visible Light 14h 46m
Length of Day
13h 51m
Waning Crescent, 23% of the Moon is Illuminated
Aug 1
Waning Crescent
Aug 6
New
Aug 14
First Quarter
Aug 20
Full
Aug 28
Last Quarter

Hourly Weather History & Observations

Time (EDT) Temp. Heat Index Dew Point Humidity Pressure Visibility Wind Dir Wind Speed Gust Speed Precip Events Conditions
1:04 AM 80.6 °F 85.4 °F 73.4 °F 79% 30.03 in 10.0 mi South 4.6 mph - N/A   Overcast
1:13 AM 80.6 °F 85.4 °F 73.4 °F 79% 30.03 in 10.0 mi South 6.9 mph - N/A   Overcast
1:57 AM 81.0 °F 85.8 °F 73.0 °F 77% 30.03 in 10.0 mi SSW 4.6 mph - N/A   Mostly Cloudy
2:30 AM 80.6 °F 85.4 °F 73.4 °F 79% 30.01 in 10.0 mi SSW 4.6 mph - N/A   Mostly Cloudy
2:57 AM 81.0 °F 85.8 °F 73.0 °F 77% 30.01 in 10.0 mi SSW 4.6 mph - N/A   Partly Cloudy
3:57 AM 80.1 °F 84.2 °F 73.0 °F 79% 30.01 in 10.0 mi SSW 5.8 mph - 0.00 in Rain Light Rain
4:22 AM 73.4 °F - 69.8 °F 88% 30.01 in 2.0 mi WSW 17.3 mph 25.3 mph 0.15 in Rain Heavy Rain
4:29 AM 73.4 °F - 69.8 °F 88% 30.01 in 1.5 mi West 6.9 mph 25.3 mph 0.24 in Rain Heavy Rain
4:37 AM 73.4 °F - 69.8 °F 88% 30.01 in 3.0 mi Variable 4.6 mph - 0.26 in Rain Rain
4:57 AM 73.0 °F - 69.1 °F 87% 30.01 in 5.0 mi Calm Calm - 0.30 in Rain Light Rain
5:57 AM 72.0 °F - 68.0 °F 87% 30.00 in 10.0 mi Calm Calm - 0.00 in Rain Light Rain
6:17 AM 71.6 °F - 68.0 °F 88% 29.99 in 2.0 mi Calm Calm - 0.05 in Rain Heavy Rain
6:27 AM 71.6 °F - 68.0 °F 88% 29.99 in 6.0 mi Calm Calm - 0.05 in Rain Light Rain
6:57 AM 73.9 °F - 70.0 °F 87% 30.00 in 8.0 mi Calm Calm - 0.05 in Rain Light Rain
7:08 AM 73.4 °F - 69.8 °F 88% 29.99 in 5.0 mi SSW 3.5 mph - 0.00 in Rain Light Rain
7:57 AM 75.9 °F - 72.0 °F 87% 30.01 in 10.0 mi Calm Calm - 0.00 in   Overcast
8:57 AM 75.9 °F - 71.1 °F 85% 30.01 in 10.0 mi South 4.6 mph - 0.00 in Rain Light Rain
9:57 AM 75.9 °F - 71.1 °F 85% 30.00 in 6.0 mi Calm Calm - 0.01 in Rain Light Rain
10:24 AM 75.2 °F - 71.6 °F 89% 29.98 in 9.0 mi Calm Calm - 0.00 in Rain Light Rain
10:40 AM 75.2 °F - 71.6 °F 89% 29.98 in 10.0 mi SSE 3.5 mph - 0.00 in Rain Light Rain
10:57 AM 75.9 °F - 71.1 °F 85% 29.99 in 6.0 mi South 6.9 mph - 0.00 in Rain Light Rain
11:06 AM 75.2 °F - 71.6 °F 89% 29.98 in 5.0 mi South 6.9 mph - 0.01 in Rain Light Rain
11:17 AM 75.2 °F - 71.6 °F 89% 29.98 in 4.0 mi South 6.9 mph - 0.03 in Rain Rain
11:57 AM 77.0 °F - 73.0 °F 88% 29.98 in 10.0 mi South 6.9 mph - 0.03 in   Overcast
12:16 PM 78.8 °F - 73.4 °F 83% 29.97 in 10.0 mi South 5.8 mph - N/A   Mostly Cloudy
12:27 PM 78.8 °F - 71.6 °F 78% 29.97 in 10.0 mi South 5.8 mph - N/A   Overcast
12:57 PM 80.1 °F 83.8 °F 72.0 °F 76% 29.98 in 10.0 mi South 6.9 mph - N/A   Mostly Cloudy
1:57 PM 82.0 °F 86.7 °F 72.0 °F 71% 29.96 in 10.0 mi South 10.4 mph - N/A   Mostly Cloudy
2:57 PM 81.0 °F 85.2 °F 72.0 °F 74% 29.94 in 10.0 mi SSW 11.5 mph 17.3 mph N/A   Mostly Cloudy
3:57 PM 82.0 °F 86.7 °F 72.0 °F 71% 29.94 in 10.0 mi SSW 15.0 mph 20.7 mph N/A   Overcast
4:13 PM 82.4 °F 87.2 °F 71.6 °F 70% 29.92 in 10.0 mi SW 12.7 mph 21.9 mph N/A   Mostly Cloudy
4:25 PM 82.4 °F 87.2 °F 71.6 °F 70% 29.92 in 10.0 mi SW 12.7 mph - N/A   Mostly Cloudy
4:52 PM 80.6 °F 84.6 °F 71.6 °F 74% 29.92 in 10.0 mi SW 15.0 mph 21.9 mph N/A   Mostly Cloudy
4:57 PM 81.0 °F 84.9 °F 71.1 °F 72% 29.93 in 10.0 mi SW 12.7 mph 21.9 mph N/A   Mostly Cloudy
5:57 PM 81.0 °F 85.8 °F 73.0 °F 77% 29.93 in 10.0 mi SW 12.7 mph - 0.00 in   Scattered Clouds
6:57 PM 81.0 °F 85.8 °F 73.0 °F 77% 29.93 in 9.0 mi WSW 12.7 mph 21.9 mph N/A   Scattered Clouds
7:57 PM 81.0 °F 85.8 °F 73.0 °F 77% 29.94 in 10.0 mi SW 16.1 mph 23.0 mph N/A   Scattered Clouds
8:57 PM 80.1 °F 83.8 °F 72.0 °F 76% 29.95 in 10.0 mi WSW 13.8 mph 21.9 mph N/A   Clear
9:57 PM 80.1 °F 84.2 °F 73.0 °F 79% 29.96 in 10.0 mi WSW 12.7 mph 18.4 mph N/A   Scattered Clouds
10:57 PM 80.1 °F 84.2 °F 73.0 °F 79% 29.97 in 10.0 mi WSW 11.5 mph 21.9 mph N/A   Clear
11:57 PM 79.0 °F - 73.0 °F 82% 29.98 in 10.0 mi WSW 6.9 mph - N/A   Partly Cloudy